Weather History for KMLF - September, 2013

Change the Weather History Date:

Wednesday, September 4, 2013

  Actual Average Record
Temperature  
Mean Temperature 72 °F -  
Max Temperature 88 °F 82 °F 95 °F (2010)
Min Temperature 55 °F 49 °F 35 °F (2004)
Cooling Degree Days 6    
Growing Degree Days 22 (Base 50)    
Moisture  
Dew Point 52 °F    
Average Humidity 49    
Maximum Humidity 83    
Minimum Humidity 15    
Precipitation  
Precipitation 0.00 in - - ()
Sea Level Pressure  
Sea Level Pressure 30.01 in    
Wind  
Wind Speed 3 mph (SSW)    
Max Wind Speed 18 mph    
Max Gust Speed 25 mph    
Visibility 10 miles    
Events      
Averages and records for this station are not official NWS values.
T = Trace of Precipitation, MM = Missing Value Source: NWS Daily Summary

Daily Weather History Graph

Daily Weather History Graph

Search for Another Location

Airport or City:

Trip Planner

Search our weather history database for the weather conditions in past years. The results will help you decide how hot, cold, wet, or windy it might be!

Date:

Astronomy

Sep. 04, 2013 Rise Set
Actual Time 7:04 AM MDT 7:56 PM MDT
Civil Twilight 6:37 AM MDT 8:23 PM MDT
Nautical Twilight 6:05 AM MDT 8:55 PM MDT
Astronomical Twilight 5:32 AM MDT 9:28 PM MDT
Moon 6:20 AM MDT (9/4) 7:19 PM MDT (9/4)
Length of Visible Light 13h 46m
Length of Day
12h 52m
Waning Crescent, 1% of the Moon is Illuminated
Sep 4
Waning Crescent
Sep 5
New
Sep 12
First Quarter
Sep 19
Full
Sep 26
Last Quarter

Hourly Weather History & Observations

Time (MDT) Temp. Dew Point Humidity Pressure Visibility Wind Dir Wind Speed Gust Speed Precip Events Conditions
12:52 AM 64.0 °F 53.1 °F 67% 30.01 in 10.0 mi Calm Calm - N/A   Clear
1:52 AM 64.0 °F 54.0 °F 70% 30.00 in 10.0 mi Calm Calm - N/A   Clear
2:52 AM 63.0 °F 53.1 °F 70% 30.00 in 10.0 mi Calm Calm - N/A   Clear
3:52 AM 61.0 °F 53.1 °F 75% 30.00 in 10.0 mi Calm Calm - N/A   Clear
4:52 AM 62.1 °F 53.1 °F 72% 30.01 in 10.0 mi West 5.8 mph - N/A   Clear
5:52 AM 59.0 °F 52.0 °F 78% 30.03 in 10.0 mi Calm Calm - N/A   Clear
6:52 AM 57.0 °F 52.0 °F 83% 30.04 in 10.0 mi Calm Calm - N/A   Clear
7:52 AM 59.0 °F 54.0 °F 83% 30.06 in 10.0 mi Calm Calm - N/A   Clear
8:52 AM 66.9 °F 55.0 °F 66% 30.07 in 10.0 mi Calm Calm - N/A   Clear
9:52 AM 72.0 °F 55.0 °F 55% 30.07 in 10.0 mi North 6.9 mph - N/A   Clear
10:52 AM 75.9 °F 53.1 °F 45% 30.07 in 10.0 mi NNW 5.8 mph - N/A   Clear
11:52 AM 79.0 °F 53.1 °F 40% 30.05 in 10.0 mi North 5.8 mph - N/A   Clear
12:52 PM 84.0 °F 52.0 °F 33% 30.03 in 10.0 mi Calm Calm - N/A   Clear
1:52 PM 84.9 °F 51.1 °F 31% 30.01 in 10.0 mi NE 5.8 mph - N/A   Clear
2:52 PM 88.0 °F 46.9 °F 24% 29.98 in 10.0 mi Calm Calm - N/A   Clear
3:52 PM 84.0 °F 48.0 °F 28% 29.99 in 10.0 mi SE 18.4 mph 25.3 mph N/A   Clear
4:52 PM 82.0 °F 46.0 °F 28% 29.97 in 10.0 mi SSW 9.2 mph - 0.00 in   Clear
5:52 PM 84.0 °F 46.9 °F 27% 29.96 in 10.0 mi South 8.1 mph - N/A   Clear
6:52 PM 82.9 °F 48.0 °F 29% 29.97 in 10.0 mi SSW 6.9 mph - N/A   Clear
7:52 PM 79.0 °F 46.9 °F 32% 29.97 in 10.0 mi SW 4.6 mph - N/A   Clear
8:52 PM 73.9 °F 52.0 °F 46% 29.99 in 10.0 mi SSE 6.9 mph - N/A   Mostly Cloudy
9:52 PM 75.9 °F 51.1 °F 42% 30.00 in 10.0 mi SSW 11.5 mph - N/A   Partly Cloudy
10:52 PM 73.9 °F 55.0 °F 52% 30.02 in 10.0 mi SW 12.7 mph - N/A   Scattered Clouds
11:52 PM 70.0 °F 55.9 °F 61% 29.99 in 10.0 mi South 15.0 mph 21.9 mph 0.00 in   Partly Cloudy